• Join FlightAware (Why Join?)
  • Login
  • US Flag GB Flag 
06:40 EST


 

Airport Tracker/Info


-or-


 

Live Flight TrackerFlight Track Log ✈ AAL2345 ✈ 14-Jun-2013 ✈ KORD - KDFW

Flight Track Log - Related Links

Times and Time Zones

All times are in EDT time to prevent confusion due to time zone crossing. See the AAL2345 flight status page for this flight to view local times or setup timezone preferences in your user account.

Time Position Orientation Groundspeed Altitude Reporting Facility
EDT Latitude Longitude Course Direction KTS MPH feet Rate Location/Type
19:05 41.9500 -87.8333 194° South 207 238 2,900  Level Chicago TRACON
19:06 41.9311 -87.8144 143° Southeast 206 237 3,500 1,320 Climbing Chicago Center
19:07 41.7334 -88.2002 201° Southwest  Level Estimated
19:07 41.8533 -87.7661 155° Southeast 247 284 5,000  Level Chicago Center
19:08 41.6505 -88.2975 197° South  Level Estimated
19:08 41.7792 -87.7597 176° South 259 298 5,000  Level Chicago Center
19:09 41.5522 -88.2306 153° Southeast  Level FlightAware Approximate
19:09 41.7147 -87.8067 209° Southwest 276 318 7,000  Level Chicago Center
19:10 41.4700 -88.3287 207° Southwest  Level Estimated
19:10 41.6517 -87.8661 215° Southwest 279 321 9,800  Level Chicago Center
19:11 41.3879 -88.4262 194° South  Level Estimated
19:11 41.5950 -87.9422 225° Southwest 289 333 12,000  Level Chicago Center
19:12 41.5194 -88.0358 223° Southwest 308 354 14,600 2,220 Climbing Chicago Center
19:13 41.4556 -88.1153 223° Southwest 327 376 16,700 1,440 Climbing Chicago Center
19:14 41.3789 -88.1942 218° Southwest 367 422 17,700 1,200 Climbing Chicago Center
19:15 41.2506 -88.2517 199° South 412 474 19,300 1,620 Climbing Chicago Center
19:16 41.1394 -88.3014 199° South 423 487 21,100 1,500 Climbing Chicago Center
19:17 41.0242 -88.3536 199° South 437 503 22,500 1,500 Climbing Chicago Center
19:18 40.9053 -88.4053 198° South 449 517 24,200 1,500 Climbing Chicago Center
19:19 40.7850 -88.4603 199° South 457 526 25,600 1,320 Climbing Chicago Center
19:20 40.6367 -88.5256 198° South 471 542 27,000 1,260 Climbing Chicago Center
19:21 40.5103 -88.5808 198° South 479 551 28,300 1,500 Climbing Chicago Center
19:22 40.3856 -88.6353 198° South 482 555 30,200 1,680 Climbing Chicago Center
19:23 40.2756 -88.7086 207° Southwest 449 517 31,800 1,200 Climbing Chicago Center
19:24 40.1786 -88.8092 218° Southwest 438 504 32,800 720 Climbing Chicago Center
19:25 40.0869 -88.9053 219° Southwest 426 490 33,400 540 Climbing Chicago Center
19:26 39.9719 -89.0203 217° Southwest 431 496 34,000 240 Climbing Chicago Center
19:27 39.8764 -89.1194 219° Southwest 435 501 34,000  Level Chicago Center
19:28 39.8003 -89.1986 219° Southwest 433 498 34,000  Level Kansas City Center
19:29 39.6953 -89.3050 218° Southwest 435 501 34,000  Level Kansas City Center
19:30 39.6014 -89.3994 218° Southwest 431 496 34,000  Level Kansas City Center
19:31 39.5053 -89.4958 218° Southwest 435 501 34,000  Level Kansas City Center
19:32 39.4106 -89.5925 218° Southwest 434 499 34,000  Level Kansas City Center
19:33 39.3142 -89.6883 218° Southwest 436 502 34,000  Level Kansas City Center
19:34 39.2000 -89.8019 218° Southwest 433 498 34,000  Level Kansas City Center
19:35 39.1022 -89.8994 218° Southwest 432 497 34,000  Level Kansas City Center
19:37 39.0100 -89.9906 218° Southwest 432 497 34,000  Level Kansas City Center
19:38 38.9219 -90.1094 226° Southwest 428 493 34,000  Level Kansas City Center
19:40 38.7592 -90.3314 227° Southwest 426 490 34,000  Level Kansas City Center
19:41 38.6764 -90.4417 226° Southwest 428 493 34,000  Level Kansas City Center
19:42 38.5956 -90.5508 227° Southwest 423 487 34,000  Level Kansas City Center
19:43 38.4978 -90.6803 226° Southwest 419 482 34,000  Level Kansas City Center
19:44 38.4131 -90.7972 227° Southwest 439 505 34,000  Level Kansas City Center
19:45 38.3328 -90.9064 227° Southwest 435 501 34,000  Level Kansas City Center
19:46 38.2508 -91.0150 226° Southwest 429 494 34,000  Level Kansas City Center
19:47 38.1678 -91.1239 226° Southwest 429 494 34,000  Level Kansas City Center
19:48 38.0861 -91.2306 226° Southwest 423 487 34,000  Level Kansas City Center
19:49 37.9897 -91.3222 217° Southwest 435 501 34,000  Level Kansas City Center
19:50 37.8567 -91.4131 208° Southwest 450 518 34,000  Level Kansas City Center
19:51 37.7483 -91.4875 209° Southwest 441 507 34,000  Level Kansas City Center
19:52 37.6411 -91.5625 209° Southwest 438 504 34,000  Level Kansas City Center
19:53 37.5347 -91.6361 209° Southwest 435 501 34,000  Level Kansas City Center
19:54 37.4547 -91.7494 228° Southwest 433 498 34,000  Level Kansas City Center
19:55 37.3678 -91.8569 225° Southwest 434 499 34,000  Level Kansas City Center
19:56 37.2833 -91.9683 226° Southwest 436 502 34,000  Level Kansas City Center
19:57 37.1964 -92.0767 225° Southwest 437 503 34,000  Level Kansas City Center
19:58 37.1114 -92.1828 225° Southwest 434 499 34,000 -360 Level Kansas City Center
19:59 37.0081 -92.3103 225° Southwest 432 497 33,300 -780 Descending Kansas City Center
20:00 36.9206 -92.4183 225° Southwest 435 501 32,400 -660 Descending Kansas City Center
20:01 36.8347 -92.5275 226° Southwest 437 503 32,000 -240 Descending Kansas City Center
20:02 36.7481 -92.6336 224° Southwest 435 501 32,000  Level Kansas City Center
20:03 36.6617 -92.7392 224° Southwest 435 501 32,000  Level Kansas City Center
20:04 36.5800 -92.8406 225° Southwest 436 502 32,000  Level Kansas City Center
20:05 36.5394 -92.8933 226° Southwest 445 512 32,000  Level Memphis Center
20:05 36.4775 -92.9664 223° Southwest 434 499 32,000  Level Kansas City Center
20:06 36.3922 -93.0725 225° Southwest 434 499 32,000  Level Kansas City Center
20:07 36.3047 -93.1761 224° Southwest 437 503 32,000  Level Kansas City Center
20:08 36.2186 -93.2822 225° Southwest 438 504 32,000  Level Kansas City Center
20:10 36.1336 -93.3847 224° Southwest 432 497 32,000  Level Kansas City Center
20:11 36.0247 -93.5164 224° Southwest 435 501 32,000  Level Memphis Center
20:12 35.9472 -93.6108 225° Southwest 437 503 32,000  Level Memphis Center
20:13 35.8614 -93.7125 224° Southwest 437 503 32,000  Level Memphis Center
20:14 35.7772 -93.8139 224° Southwest 437 503 32,000  Level Memphis Center
20:15 35.6886 -93.9175 224° Southwest 432 497 32,000  Level Memphis Center
20:16 35.6044 -94.0186 224° Southwest 432 497 32,000  Level Memphis Center
20:17 35.5181 -94.1169 223° Southwest 432 497 32,000  Level Memphis Center
20:18 35.4336 -94.2200 225° Southwest 432 497 32,000  Level Memphis Center
20:19 35.3450 -94.3203 223° Southwest 432 497 32,000  Level Memphis Center
20:20 35.2542 -94.4178 221° Southwest 432 497 32,000  Level Memphis Center
20:21 35.1053 -94.5814 222° Southwest 432 497 32,000  Level Fort Worth Center
20:22 35.0156 -94.6781 221° Southwest 437 503 32,000  Level Fort Worth Center
20:23 34.9281 -94.7722 221° Southwest 437 503 32,000  Level Fort Worth Center
20:24 34.8383 -94.8736 223° Southwest 437 503 32,000  Level Fort Worth Center
20:25 34.7464 -94.9750 222° Southwest 437 503 32,000  Level Fort Worth Center
20:26 34.6606 -95.0631 220° Southwest 430 495 32,000 -540 Level Fort Worth Center
20:27 34.5917 -95.1861 236° Southwest 430 495 31,000 -1,020 Descending Fort Worth Center
20:28 34.5333 -95.3111 240° Southwest 430 495 30,000 -960 Descending Fort Worth Center
20:29 34.4750 -95.4386 241° Southwest 430 495 29,100 -960 Descending Fort Worth Center
20:30 34.4186 -95.5633 241° Southwest 435 501 28,100 -1,080 Descending Fort Worth Center
20:31 34.3536 -95.7056 241° Southwest 435 501 27,000 -1,080 Descending Fort Worth Center
20:32 34.3011 -95.8347 244° Southwest 435 501 26,000 -1,020 Descending Fort Worth Center
20:33 34.2400 -95.9564 239° Southwest 435 501 25,000 -1,020 Descending Fort Worth Center
20:34 34.1786 -96.0703 237° Southwest 425 489 24,000 -720 Descending Fort Worth Center
20:35 34.1089 -96.1819 233° Southwest 418 481 23,600 -1,200 Descending Fort Worth Center
20:36 34.0408 -96.2581 223° Southwest 408 470 21,600 -2,160 Descending Fort Worth Center
20:37 33.9453 -96.3119 205° Southwest 384 442 19,400 -2,580 Descending Fort Worth Center
20:38 33.8497 -96.3681 206° Southwest 384 442 16,400 -3,300 Descending Fort Worth Center
20:39 33.7481 -96.4267 206° Southwest 384 442 12,800 -2,580 Descending Fort Worth Center
20:40 33.6647 -96.4750 206° Southwest 363 418 11,300 -1,260 Descending Fort Worth Center
20:41 33.5881 -96.5183 205° Southwest 322 371 10,400 -1,200 Descending Fort Worth Center
20:42 33.5194 -96.5589 206° Southwest 286 329 9,000 -720 Descending Fort Worth Center
20:43 33.4486 -96.6019 207° Southwest 276 318 9,000  Level Fort Worth Center
20:44 33.3864 -96.6597 218° Southwest 288 331 9,000 -420 Level Fort Worth Center
20:45 33.3197 -96.7050 210° Southwest 282 325 8,200 -1,200 Descending Fort Worth Center
20:46 33.2533 -96.7503 210° Southwest 277 319 6,700 -1,500 Descending Fort Worth Center
20:47 33.1950 -96.8053 218° Southwest 277 319 5,200 -900 Descending Fort Worth Center
20:48 33.1536 -96.8700 233° Southwest 272 313 5,000 -780 Descending Fort Worth Center
20:49 33.0975 -96.9447 228° Southwest 280 322 3,700 -1,200 Descending Fort Worth Center
20:50 33.0833 -96.9667 232° Southwest 267 307 3,400 -720 Descending Dallas / Fort Worth TRACON
20:51 33.0333 -97.0167 220° Southwest 190 219 2,700 -660 Descending Dallas / Fort Worth TRACON